Weather Roundup
Issued by NWS

Home | Current Version | Previous Version | Graphics & Text | Print | Product List | Glossary Off
Versions: 1 2 3 4 5 6 7 8 9 10 11 12 13 14 15 16 17 18 19 20 21 22 23 24 25 26 27 28 29 30 31 32 33 34 35 36 37 38 39 40 41 42 43 44 45 46 47 48 49 50

000
NZUS93 KARX 182159
HRRWXR

CURRENT HOURLY OBSERVATIONS ACROSS
MUCH OF THE UPPER MISSISSIPPI VALLEY
NATIONAL WEATHER SERVICE LA CROSSE WI
500 PM CDT THU SEP 18 2014


...SOUTHEAST MINNESOTA...


CITY           SKY/WX    TMP DP  RH WIND       PRES   REMARKS
ROCHESTER      MOSUNNY   69  52  54 S9        30.05F
ROCHESTER/MAYO FAIR      72  47  42 S7        30.04F
WINONA         SUNNY     68  57  68 E12       30.06F
AUSTIN         SUNNY     72  54  53 S8        30.02F
ALBERT LEA     SUNNY     73  50  43 S12       30.01F
DODGE CENTER   MOSUNNY   72  52  49 S13       30.03S
PRESTON        MOSUNNY   70  58  66 SE7G16    30.05F
OWATONNA       MOSUNNY   73  52  46 SE8       30.01F
FARIBAULT      SUNNY     77  43  29 S7        30.01F
$$

...ELSEWHERE IN MINNESOTA...


CITY           SKY/WX    TMP DP  RH WIND       PRES   REMARKS
MINNEAPOLIS    MOSUNNY   74  50  42 S9        29.99F
INTNL FALLS    SUNNY     63  49  60 SE13      29.94F
DULUTH         CLOUDY    48  42  80 E12       30.07F
RED WING       SUNNY     72  55  56 SE10      30.01F
REDWOOD FALLS  SUNNY     76  49  38 S16       29.95F
MANKATO        SUNNY     73  50  43 S12       29.99S
WORTHINGTON    SUNNY     72  50  46 S10       29.98S
FAIRMONT       SUNNY     73  43  33 S12G17    29.98F
$$

...SOUTHWEST WISCONSIN...


CITY           SKY/WX    TMP DP  RH WIND       PRES   REMARKS
LA CROSSE      PTSUNNY   72  56  57 SE9       30.07F
PRAIRIE DU CHI SUNNY     71  51  49 SE5       30.07S
BOSCOBEL       MOSUNNY   70  56  61 VRB6      30.08F
LONE ROCK      NOT AVBL
PLATTEVILLE    SUNNY     68  53  57 CALM      30.10S
FORT MC COY    SUNNY     65  52  62 E6        30.10F
VIROQUA        FAIR      65  54  66 SE7       30.10S
WIS DELLS      SUNNY     62  51  65 E7        30.12F
$$

...ELSEWHERE IN WISCONSIN...


CITY           SKY/WX    TMP DP  RH WIND       PRES   REMARKS
MILWAUKEE      PTSUNNY   57  51  80 NE9       30.15F
MADISON        PTSUNNY   66  53  63 VRB5      30.12F
GREEN BAY      PTSUNNY   59  47  64 CALM      30.15F
EAU CLAIRE     NOT AVBL
BLACK RVR FLS  FAIR      64  52  64 E7        30.09F
MEDFORD        SUNNY     55  49  79 SE6       30.12F
WAUSAU         SUNNY     57  48  72 S3        30.12F
WIS RAPIDS     SUNNY     61  50  67 E7        30.13F
MARSHFIELD     MOSUNNY   56  49  77 E7        30.12F
RICE LAKE      MOSUNNY   60  51  73 SE10      30.09F
$$

...NORTHEAST IOWA...


CITY           SKY/WX    TMP DP  RH WIND       PRES   REMARKS
WATERLOO       SUNNY     72  52  49 SE15      30.04S
DUBUQUE        MOSUNNY   69  52  54 E10       30.09S
DECORAH        MOSUNNY   70  55  60 SE8       30.06S
MASON CITY     SUNNY     72  53  51 S13       30.03F
CHARLES CITY   SUNNY     72  50  46 S8G15     30.05F
OELWEIN        MOSUNNY   73  52  46 S10       30.06S
$$

...ELSEWHERE IN IOWA...


CITY           SKY/WX    TMP DP  RH WIND       PRES   REMARKS
DES MOINES     MOSUNNY   73  53  49 SE10      30.02F
IOWA CITY      MOSUNNY   73  54  51 SE10      30.05F
FORT DODGE     SUNNY     72  48  43 S10G16    30.02F
MARSHALLTOWN   SUNNY     72  53  51 SE12      30.03S
CEDAR RAPIDS   SUNNY     72  54  53 SE12      30.05S
$$

...NORTHERN ILLINOIS...


CITY           SKY/WX    TMP DP  RH WIND       PRES   REMARKS
CHICAGO-OHARE  MOSUNNY   68  54  60 NE12      30.12S
DUPAGE         SUNNY     68  53  58 NE10      30.10F
CHICAGO-MIDWAY MOSUNNY   67  55  65 NE10      30.11S
MOLINE         SUNNY     72  52  49 E14       30.06S
ROCKFORD       MOSUNNY   70  52  52 E10       30.11F
STERLING       MOSUNNY   72  54  53 E10       30.08S
PEORIA         SUNNY     74  48  39 E6        30.06F
$$

NOTE: "FAIR" INDICATES FEW OR NO CLOUDS BELOW 12,000 FEET WITH NO
SIGNIFICANT WEATHER AND/OR OBSTRUCTIONS TO VISIBILITY. WIND
SPEEDS ARE IN MILES-PER-HOUR.



USA.gov is the U.S. government's official web portal to all federal, state and local government web resources and services.